Wind_Speed
6 6 6 5 4 4 4 5 6 7 9 11 13 15 17 18 19 19 17 16 16 15 13 10 10 7 5 6 4 9 9 4 7 10 8 7 12 10 11 12 12 15 11 10 14
6 6 6 5 5 4 3 3 3 3 3 4 5 6 9 12 15 14 16 16 14 14 15 14 10 9 10 5 5 11 10 7 8 5 4 10 11 8 10 12 13 14 12 9 11
7 6 6 5 5 4 3 2 2 3 3 3 3 3 5 6 7 12 14 15 15 14 15 15 13 13 10 4 3 8 8 4 7 3 5 14 12 10 10 13 13 15 14 11 10
8 6 6 5 4 4 3 2 2 3 4 4 4 7 9 8 3 9 14 16 17 15 14 15 16 13 9 4 3 5 9 4 6 3 8 15 10 10 9 7 10 12 12 10 11
9 8 6 6 4 3 3 2 2 3 4 5 6 8 7 6 7 10 13 16 17 15 13 15 16 14 10 5 2 3 4 4 3 5 9 10 8 4 4 2 8 7 8 14 11
10 9 7 7 6 3 3 2 2 3 5 6 8 9 7 7 8 10 13 15 17 17 14 13 15 15 14 8 6 3 2 1 5 8 10 10 9 6 1 4 4 6 6 13 16
10 11 9 7 7 4 3 3 3 4 5 5 8 11 10 6 8 10 14 17 18 18 15 17 18 17 15 7 7 10 6 3 9 10 13 12 9 6 5 5 1 10 4 7 12
11 12 10 8 8 6 4 4 4 5 5 6 9 11 8 8 10 11 12 15 18 20 22 22 20 15 10 13 11 8 4 7 14 12 12 14 13 9 7 7 2 10 11 8 8
12 12 11 9 7 7 5 5 6 7 7 8 10 12 8 10 13 15 15 15 17 21 21 20 17 14 13 14 8 3 1 8 17 16 13 17 16 14 10 10 5 8 13 14 11
12 13 12 11 8 8 6 7 7 8 9 9 11 10 11 12 12 14 18 20 19 20 18 14 12 14 14 12 3 2 7 4 21 19 18 19 18 15 12 12 8 6 11 18 14
13 13 13 12 9 9 8 8 9 9 11 13 12 11 13 15 15 14 16 18 19 17 14 11 10 13 8 4 3 3 2 3 11 13 15 18 22 18 16 16 14 6 6 14 17
13 13 13 13 10 10 9 8 8 10 11 14 12 14 13 17 19 20 19 18 19 17 16 12 14 7 3 2 3 2 2 1 9 9 14 19 26 20 20 19 12 6 4 7 11
14 13 13 14 11 11 10 9 7 7 10 13 17 17 16 15 14 16 18 19 21 17 15 11 8 5 6 7 7 4 2 5 11 10 7 13 21 22 23 23 19 14 9 8 9
15 13 12 14 12 12 11 9 7 8 6 11 20 21 18 18 15 13 13 16 21 14 8 7 5 13 9 6 6 7 5 4 2 2 3 15 9 27 28 26 24 19 16 12 6
15 15 13 14 14 13 12 8 7 5 3 7 20 18 19 19 12 17 14 20 17 12 8 7 6 10 8 6 6 5 3 4 7 10 8 13 7 19 32 32 31 27 22 18 13
16 16 13 14 15 15 12 8 7 5 7 9 17 22 25 21 13 20 21 20 17 12 8 9 6 9 8 9 7 4 3 4 4 8 5 10 5 9 21 20 30 33 27 22 17
16 17 14 15 16 17 14 13 6 8 4 9 17 18 25 23 18 23 25 25 19 14 13 11 9 8 8 9 7 6 5 3 3 2 5 5 10 7 8 19 28 30 33 27 21
16 18 15 15 18 17 17 17 11 8 9 4 16 15 24 22 24 19 23 22 23 15 9 14 9 13 13 13 13 11 7 4 3 2 7 10 5 3 8 10 24 29 32 28 25
16 18 16 16 19 19 21 23 15 7 10 9 10 17 21 23 21 20 25 23 21 22 13 13 11 14 12 13 13 11 7 4 3 2 3 5 8 16 8 8 15 26 34 31 25
15 18 17 17 19 21 23 27 22 12 10 10 10 19 23 26 22 22 19 19 21 18 20 8 7 9 11 11 13 9 9 5 6 2 3 5 7 10 11 12 7 21 33 30 23
14 15 17 18 20 23 28 29 29 17 12 9 9 11 16 25 27 21 13 18 13 16 21 22 10 13 16 16 19 16 15 8 6 5 6 1 4 6 11 7 6 14 29 27 19
14 14 17 19 23 27 29 28 28 23 16 11 12 10 13 17 24 25 24 20 16 24 24 23 14 16 22 20 22 19 16 15 13 7 10 7 13 15 11 9 6 12 25 21 20
14 16 17 21 24 25 24 25 26 26 23 18 16 14 13 17 15 16 16 17 15 16 19 28 25 18 11 18 16 18 18 17 18 15 14 9 13 15 17 11 12 16 22 21 19
14 15 21 25 25 20 21 22 20 12 20 24 21 18 14 14 15 13 17 16 14 16 16 18 23 24 27 27 28 23 20 18 15 17 18 23 23 16 14 16 20 25 24 22 21
16 16 23 25 28 26 21 13 15 15 18 17 25 24 20 15 15 15 17 19 17 15 13 16 18 18 17 15 20 20 20 15 14 16 16 17 13 11 9 12 19 26 26 26 26
17 18 20 22 28 29 27 25 19 14 17 16 19 24 24 21 19 18 16 18 18 14 16 17 13 15 15 14 14 14 15 16 18 21 20 17 20 20 21 20 17 20 25 27 28
18 18 21 26 21 26 27 26 23 18 16 14 15 15 17 18 17 17 16 16 18 19 21 20 16 15 15 16 16 16 23 21 24 24 22 17 17 21 25 29 30 29 24 25 26
Wind_Direction
338 335 335 327 313 291 277 265 256 243 234 235 237 239 239 238 236 235 233 227 222 223 214 204 198 186 198 170 82 56 75 90 53 57 86 129 153 122 95 74 75 87 103 85 87
333 336 337 332 324 312 292 269 251 223 191 193 200 213 222 227 226 220 212 212 201 196 196 199 182 178 167 135 55 60 72 81 87 49 86 130 134 104 85 74 55 78 85 126 107
325 331 331 330 324 315 300 271 233 205 175 164 160 168 184 191 198 203 196 196 191 188 191 191 180 171 153 105 50 39 54 112 98 118 111 153 141 91 58 58 62 68 60 138 127
316 323 323 323 322 313 303 284 217 197 181 166 151 146 138 132 142 174 183 185 183 183 183 180 178 171 165 179 36 81 46 96 157 150 116 130 111 90 87 64 70 78 60 80 128
308 314 315 315 315 310 297 288 222 198 193 179 165 159 147 143 140 160 174 179 180 177 175 175 180 178 190 196 162 116 110 80 89 163 124 126 110 104 95 60 33 66 82 76 137
300 306 307 307 309 307 285 261 224 198 190 184 176 176 161 148 144 157 166 173 176 176 175 180 183 192 201 207 188 189 221 62 124 147 164 163 162 160 278 264 12 59 88 101 102
291 297 300 299 299 296 275 244 215 200 186 185 178 177 175 170 159 157 165 168 168 170 170 181 195 200 204 214 219 230 249 247 177 158 162 179 182 184 217 244 72 48 109 102 112
285 289 292 290 289 289 273 238 215 205 192 181 177 174 176 171 167 166 159 166 166 168 177 192 203 205 223 227 247 242 258 184 181 179 184 202 198 200 233 246 191 42 61 101 107
280 282 286 284 279 278 267 243 222 210 200 185 177 171 171 168 169 170 155 163 175 181 190 202 210 223 234 213 230 224 285 222 193 204 225 213 214 207 219 220 213 71 82 93 94
276 277 279 279 271 268 260 239 225 216 204 189 183 175 182 168 167 170 166 165 169 180 193 205 217 214 198 192 163 272 315 271 208 208 220 226 224 223 217 227 225 124 99 99 95
272 271 272 272 265 261 256 246 233 228 210 198 194 199 187 184 178 173 168 172 178 181 177 176 184 162 157 195 259 302 327 360 204 209 213 225 230 236 224 223 223 193 123 113 106
266 266 266 264 257 255 257 252 248 249 235 216 208 201 189 183 177 179 178 180 178 167 169 171 157 148 186 190 158 107 253 142 161 181 207 221 225 231 222 228 236 261 186 137 114
266 260 258 258 249 246 251 257 260 267 258 226 207 196 187 177 181 186 187 190 185 180 173 169 150 185 183 163 161 142 156 114 164 174 200 221 212 224 224 229 227 220 192 176 159
267 255 251 252 244 238 242 252 264 286 278 224 206 196 194 179 185 178 181 187 174 171 191 208 187 186 189 183 211 211 176 200 221 210 178 195 212 218 228 232 232 223 214 207 200
262 254 245 241 240 234 233 236 240 254 322 206 195 194 198 195 192 191 175 185 175 163 174 170 169 182 198 235 184 205 215 257 269 280 260 215 229 229 228 232 238 230 216 210 216
259 255 240 235 235 231 221 219 227 227 250 175 183 195 195 191 186 187 185 188 191 202 212 181 182 188 213 194 196 217 226 287 243 244 245 241 211 225 223 246 238 232 222 221 226
255 253 237 233 228 226 214 206 213 220 214 191 187 197 201 186 176 178 186 195 196 198 213 210 208 207 213 218 234 223 262 2 17 358 221 197 292 261 260 230 237 239 225 221 225
253 250 240 233 225 221 214 204 217 228 198 189 205 207 203 195 188 187 196 202 206 203 209 214 220 219 223 234 244 237 225 174 201 218 278 299 246 285 282 246 230 228 232 223 222
250 249 239 228 225 218 212 203 215 220 189 200 207 202 205 201 199 204 204 204 204 206 205 204 211 198 223 229 223 197 182 197 207 252 309 275 286 304 302 284 239 218 218 218 217
246 245 239 223 221 214 214 216 217 214 200 211 211 203 208 205 205 206 205 221 222 218 215 220 192 190 196 193 202 202 207 187 198 153 271 291 302 292 324 329 260 209 212 209 213
249 241 234 221 214 212 216 219 220 219 217 208 200 213 210 210 212 214 214 219 209 223 225 226 226 203 194 202 211 206 202 201 200 192 169 253 286 341 329 329 311 226 206 209 230
247 235 220 214 210 213 220 223 230 229 217 219 218 191 205 205 209 221 231 234 236 238 237 235 239 228 220 214 222 227 230 227 218 214 209 236 265 287 295 300 292 214 206 223 235
239 228 221 209 213 218 220 225 237 236 219 236 232 208 209 200 194 197 198 220 232 238 233 236 231 221 217 222 215 218 220 227 233 237 232 212 261 272 283 273 259 231 224 234 242
229 211 215 209 213 213 221 227 232 235 227 223 218 209 210 209 212 203 199 198 212 224 224 228 224 229 224 232 218 210 221 226 227 236 245 250 265 259 264 263 242 234 233 242 249
229 209 209 214 217 220 222 225 226 217 214 217 216 213 212 223 223 213 202 202 199 205 217 220 220 223 229 232 220 223 227 215 227 245 249 271 261 257 259 255 253 247 248 242 244
238 222 210 213 214 221 226 228 231 224 215 213 214 216 219 226 232 229 216 212 214 213 209 213 224 225 207 201 209 227 246 260 272 273 267 263 273 278 280 278 264 252 251 251 252
241 234 219 218 213 219 225 231 238 237 231 216 214 210 207 214 218 220 221 224 222 225 221 220 218 206 217 227 235 239 248 259 269 269 272 278 302 299 292 279 274 268 252 249 244
Height
3161 3160 3159 3158 3157 3156 3156 3155 3155 3155 3156 3156 3156 3157 3158 3159 3161 3163 3165 3169 3171 3173 3175 3177 3179 3180 3181 3182 3182 3182 3183 3183 3184 3185 3185 3185 3186 3187 3187 3187 3186 3185 3186 3187 3186
3160 3159 3158 3157 3157 3156 3155 3155 3154 3154 3155 3155 3155 3155 3156 3157 3158 3160 3164 3164 3168 3171 3173 3175 3178 3180 3181 3183 3183 3182 3184 3184 3185 3185 3187 3187 3188 3188 3189 3188 3188 3188 3187 3189 3189
3160 3158 3157 3156 3156 3155 3155 3155 3154 3154 3154 3155 3155 3155 3155 3156 3158 3159 3162 3163 3167 3169 3171 3174 3177 3180 3181 3182 3183 3183 3184 3184 3185 3186 3187 3188 3189 3190 3190 3191 3191 3190 3189 3189 3190
3159 3158 3156 3156 3155 3155 3154 3154 3154 3154 3155 3155 3156 3156 3156 3157 3160 3159 3161 3163 3165 3168 3171 3174 3177 3180 3182 3183 3183 3184 3184 3185 3186 3187 3187 3188 3190 3191 3192 3193 3193 3192 3191 3190 3191
3158 3157 3155 3155 3154 3154 3153 3153 3153 3154 3155 3155 3156 3156 3157 3158 3159 3159 3161 3163 3166 3168 3171 3174 3177 3180 3181 3183 3184 3185 3185 3186 3187 3186 3188 3190 3192 3193 3194 3193 3193 3193 3192 3193 3193
3157 3156 3154 3154 3153 3153 3152 3152 3153 3154 3154 3155 3156 3157 3158 3159 3159 3160 3162 3164 3167 3170 3172 3175 3177 3179 3181 3183 3184 3185 3186 3186 3187 3188 3190 3192 3193 3194 3195 3195 3195 3194 3194 3194 3195
3155 3154 3153 3153 3152 3152 3151 3152 3152 3153 3154 3155 3155 3156 3158 3160 3159 3161 3162 3163 3166 3170 3173 3174 3175 3179 3181 3183 3184 3185 3187 3186 3188 3189 3191 3193 3195 3195 3196 3196 3197 3197 3196 3196 3197
3153 3153 3152 3151 3151 3151 3150 3151 3151 3152 3153 3154 3155 3156 3157 3158 3159 3161 3162 3164 3166 3168 3170 3172 3175 3178 3180 3182 3183 3184 3184 3185 3187 3189 3191 3193 3194 3196 3197 3197 3199 3199 3197 3197 3198
3151 3150 3150 3150 3150 3149 3149 3150 3150 3151 3152 3153 3154 3155 3157 3158 3159 3161 3162 3165 3167 3169 3170 3172 3175 3178 3180 3181 3182 3183 3183 3184 3186 3188 3190 3192 3193 3195 3197 3198 3200 3201 3199 3199 3199
3148 3148 3148 3147 3148 3148 3148 3148 3148 3149 3151 3152 3154 3157 3157 3158 3159 3160 3162 3164 3167 3169 3171 3174 3175 3176 3178 3180 3181 3181 3180 3179 3181 3186 3187 3189 3191 3194 3196 3197 3199 3201 3201 3200 3199
3145 3145 3145 3145 3146 3146 3146 3147 3150 3150 3150 3151 3152 3153 3154 3156 3158 3160 3162 3164 3165 3168 3170 3172 3174 3175 3178 3179 3179 3179 3179 3178 3180 3183 3186 3187 3189 3192 3194 3196 3197 3199 3200 3201 3201
3142 3142 3142 3142 3143 3143 3144 3145 3146 3148 3148 3149 3150 3151 3153 3153 3156 3158 3161 3164 3165 3167 3170 3173 3174 3176 3177 3178 3179 3178 3178 3178 3180 3181 3184 3185 3187 3190 3191 3194 3197 3198 3199 3199 3200
3138 3139 3139 3139 3141 3141 3142 3143 3144 3145 3145 3146 3147 3149 3152 3154 3155 3157 3160 3162 3165 3167 3169 3171 3174 3174 3175 3177 3178 3178 3178 3178 3179 3180 3181 3182 3186 3187 3188 3190 3193 3194 3196 3198 3199
3135 3135 3136 3136 3140 3139 3140 3142 3142 3143 3142 3142 3143 3147 3149 3152 3155 3156 3158 3163 3163 3167 3168 3170 3171 3172 3174 3175 3177 3178 3178 3179 3179 3180 3180 3182 3184 3183 3184 3186 3187 3190 3192 3195 3197
3130 3131 3132 3134 3135 3136 3139 3140 3141 3142 3142 3138 3139 3143 3146 3150 3152 3154 3157 3160 3163 3165 3168 3169 3169 3171 3173 3174 3175 3177 3178 3178 3178 3178 3179 3180 3182 3180 3180 3181 3182 3185 3189 3193 3195
3126 3126 3128 3130 3131 3133 3136 3138 3140 3143 3136 3134 3135 3138 3142 3146 3149 3151 3154 3159 3162 3163 3164 3166 3167 3170 3171 3173 3174 3175 3176 3176 3176 3177 3177 3176 3178 3175 3174 3172 3176 3180 3185 3189 3192
3121 3121 3124 3125 3128 3129 3133 3136 3140 3136 3133 3134 3133 3135 3138 3142 3146 3149 3151 3154 3157 3160 3162 3164 3166 3168 3170 3171 3173 3173 3174 3175 3177 3178 3177 3176 3175 3169 3168 3170 3172 3175 3180 3186 3188
3116 3116 3118 3121 3123 3126 3129 3133 3133 3129 3130 3130 3132 3134 3136 3140 3143 3146 3149 3151 3154 3157 3159 3162 3165 3166 3167 3169 3170 3171 3172 3174 3179 3180 3174 3173 3170 3168 3167 3167 3167 3172 3179 3183 3185
3110 3111 3113 3116 3119 3121 3125 3125 3125 3125 3127 3128 3129 3131 3134 3138 3142 3143 3146 3148 3151 3153 3158 3159 3161 3162 3164 3165 3168 3168 3170 3172 3172 3174 3174 3170 3168 3167 3165 3163 3163 3167 3173 3178 3181
3104 3105 3108 3110 3113 3116 3119 3119 3121 3123 3124 3125 3126 3128 3130 3133 3138 3141 3143 3145 3147 3150 3155 3157 3159 3159 3161 3163 3165 3165 3168 3170 3170 3174 3175 3169 3167 3164 3163 3163 3163 3165 3169 3175 3178
3099 3100 3102 3105 3108 3111 3111 3114 3117 3120 3121 3123 3124 3124 3126 3129 3134 3137 3141 3143 3144 3147 3151 3154 3156 3159 3159 3160 3160 3162 3163 3165 3167 3168 3170 3172 3166 3165 3163 3162 3163 3164 3169 3173 3176
3094 3095 3097 3099 3104 3103 3106 3110 3113 3115 3119 3120 3121 3122 3124 3126 3129 3133 3136 3139 3140 3143 3146 3150 3152 3153 3156 3156 3157 3158 3159 3161 3162 3165 3164 3163 3163 3162 3162 3162 3162 3164 3167 3171 3172
3089 3090 3092 3094 3096 3099 3102 3105 3107 3110 3115 3117 3118 3120 3122 3124 3128 3130 3133 3135 3136 3137 3139 3144 3146 3149 3151 3155 3154 3154 3155 3156 3158 3159 3158 3160 3159 3158 3158 3159 3160 3161 3164 3166 3167
3085 3086 3088 3089 3091 3095 3098 3100 3102 3106 3109 3111 3114 3116 3119 3120 3123 3126 3129 3132 3133 3134 3135 3138 3139 3141 3141 3144 3147 3147 3150 3152 3154 3154 3153 3152 3153 3154 3154 3154 3155 3156 3159 3162 3163
3079 3081 3082 3083 3087 3089 3094 3096 3098 3101 3104 3106 3109 3111 3115 3117 3119 3121 3125 3128 3130 3131 3133 3135 3136 3138 3138 3140 3143 3145 3147 3148 3149 3150 3150 3151 3151 3152 3152 3152 3153 3155 3155 3156 3157
3074 3076 3078 3080 3082 3085 3088 3091 3094 3097 3100 3102 3104 3106 3110 3113 3115 3118 3121 3124 3126 3129 3129 3131 3132 3134 3136 3138 3141 3142 3143 3144 3145 3145 3145 3146 3147 3149 3149 3149 3150 3150 3150 3151 3152
3069 3071 3073 3074 3078 3081 3084 3086 3089 3093 3096 3098 3101 3102 3105 3108 3111 3114 3117 3119 3122 3124 3126 3128 3130 3132 3133 3135 3136 3137 3138 3140 3140 3141 3142 3142 3143 3142 3141 3140 3141 3142 3144 3145 3148